Elsenborn, Belgium

12:26 PM CET on December 07, 2016 (GMT +0100)
Elsenborn

Weather History for EBLB - February, 2013

Change the Weather History Date:

Wednesday, February 13, 2013

  Actual Average Record
Temperature  
Mean Temperature 25 °F -  
Max Temperature 31 °F 35 °F 46 °F (2001)
Min Temperature 17 °F 28 °F -4 °F (1999)
Degree Days  
Heating Degree Days 40    
Moisture  
Dew Point 16 °F    
Average Humidity 73    
Maximum Humidity 86    
Minimum Humidity 42    
Precipitation  
Precipitation 0.00 in - - ()
Sea Level Pressure  
Sea Level Pressure 30.13 in    
Wind  
Wind Speed 2 mph ()    
Max Wind Speed 8 mph    
Max Gust Speed -    
Visibility 5.1 miles    
Events Snow    
Averages and records for this station are not official NWS values.
T = Trace of Precipitation, MM = Missing Value Source: Averaged Metar Reports

Daily Weather History Graph

Daily Weather History Graph

Search for Another Location

Airport or City:

Trip Planner

Search our weather history database for the weather conditions in past years. The results will help you decide how hot, cold, wet, or windy it might be!

Date:

Astronomy

Feb. 13, 2013 Rise Set
Actual Time 7:50 AM CET 5:49 PM CET
Civil Twilight 7:16 AM CET 6:23 PM CET
Nautical Twilight 6:38 AM CET 7:01 PM CET
Astronomical Twilight 6:00 AM CET 7:39 PM CET
Moon 8:44 AM CET (2/13) 10:06 PM CET (2/13)
Length of Visible Light 11h 06m
Length of Day
9h 58m
Waxing Crescent, 12% of the Moon is Illuminated
Feb 13
Waxing Crescent
Feb 17
First Quarter
Feb 25
Full
Mar 4
Last Quarter
Mar 11
New

Hourly Weather History & Observations

Time (CET) Temp. Windchill Dew Point Humidity Pressure Visibility Wind Dir Wind Speed Gust Speed Precip Events Conditions
12:25 AM 21.2 °F - 17.6 °F 86% 30.01 in 4.3 mi Calm Calm - N/A Snow Light Snow Showers
1:00 AM 20 °F - 17 °F 80% 30.14 in 4 mi Calm Calm - - Snow Light Snow Showers
1:09 AM 21.2 °F - 12.2 °F 68% 30.01 in 6.2 mi Variable 2.3 mph - N/A Snow Light Snow Showers
1:25 AM 21.2 °F - 15.8 °F 80% 30.01 in 5.0 mi Variable 2.3 mph - N/A Snow Light Snow Showers
2:25 AM 21.2 °F - 15.8 °F 80% 30.01 in 4.3 mi Calm Calm - N/A Snow Light Snow Showers
3:25 AM 21.2 °F - 17.6 °F 86% 30.01 in 3.1 mi Calm Calm - N/A Snow Light Snow Showers
3:28 AM 21.2 °F - 17.6 °F 86% 30.01 in 2.8 mi Calm Calm - N/A Snow Light Snow Showers
3:34 AM 21.2 °F - 17.6 °F 86% 30.01 in 3.7 mi Variable 1.2 mph - N/A Snow Light Snow Showers
3:44 AM 21.2 °F - 17.6 °F 86% 30.01 in - Calm Calm - N/A Snow Light Snow Showers
3:50 AM 21.2 °F - 15.8 °F 80% 30.01 in 3.1 mi Calm Calm - N/A Snow Light Snow Showers
4:00 AM 20 °F - 17 °F 80% 30.17 in 3 mi Calm Calm - - Snow Light Snow Showers
4:25 AM 21.2 °F - 15.8 °F 80% 30.04 in 4.3 mi Variable 1.2 mph - N/A Snow Light Snow Showers
5:07 AM 21.2 °F - 17.6 °F 86% 30.04 in - Calm Calm - N/A Snow Light Snow Showers
5:25 AM 21.2 °F - 17.6 °F 86% 30.04 in 2.8 mi Variable 1.2 mph - N/A Snow Light Snow
5:44 AM 21.2 °F - 15.8 °F 80% 30.04 in 3.7 mi Variable 1.2 mph - N/A Snow Light Snow
6:25 AM 19.4 °F - 15.8 °F 86% 30.06 in 3.1 mi Variable 2.3 mph - N/A Snow Light Snow
6:29 AM 19.4 °F - 15.8 °F 86% 30.06 in - Variable 2.3 mph - N/A Snow Light Snow
7:00 AM 20 °F - 17 °F 81% 30.22 in 2 mi Calm Calm - -   Overcast
7:25 AM 19.4 °F - 15.8 °F 86% 30.09 in 2.5 mi Calm Calm - N/A Snow Light Snow
10:00 AM 22 °F - 19 °F 81% 30.28 in 3 mi Calm Calm - -   Mist
10:02 AM 23.0 °F - 19.4 °F 86% 30.15 in 3.7 mi Calm Calm - N/A   Partly Cloudy
10:25 AM 24.8 °F - 19.4 °F 80% 30.15 in 3.7 mi Variable 1.2 mph - N/A   Partly Cloudy
10:39 AM 24.8 °F 19.1 °F 17.6 °F 74% 30.15 in 5.0 mi East 4.6 mph - N/A   Clear
11:25 AM 26.6 °F 22.6 °F 17.6 °F 69% 30.15 in 6.2 mi Variable 3.5 mph - N/A   Partly Cloudy
12:25 PM 28.4 °F 22.2 °F 17.6 °F 64% 30.15 in 6.2 mi ESE 5.8 mph - N/A   Partly Cloudy
1:00 PM 30 °F - 17 °F 46% 30.26 in 9 mi ESE 6.7 mph - -   Partly Cloudy
1:25 PM 30.2 °F 23.4 °F 15.8 °F 55% 30.15 in 6.2 mi ESE 6.9 mph - N/A   Scattered Clouds
2:25 PM 30.2 °F 24.3 °F 15.8 °F 55% 30.15 in 6.2 mi SE 5.8 mph - N/A   Partly Cloudy
3:25 PM 30.2 °F 24.3 °F 15.8 °F 55% 30.18 in 6.2 mi SE 5.8 mph - N/A   Partly Cloudy
4:00 PM 29 °F - 15 °F 42% 30.28 in 11 mi 4.5 mph - -   Partly Cloudy
4:25 PM 28.4 °F 20.4 °F 15.8 °F 59% 30.18 in 6.2 mi SE 8.1 mph - N/A   Mostly Cloudy
5:25 PM 26.6 °F 19.1 °F 14.0 °F 59% 30.18 in 6.2 mi SSE 6.9 mph - N/A   Overcast
6:25 PM 24.8 °F 19.1 °F 14.0 °F 64% 30.18 in 6.2 mi SE 4.6 mph - N/A   Mostly Cloudy
7:00 PM 24 °F - 14 °F 52% 30.33 in 11 mi SE 4.5 mph - -   Mostly Cloudy
7:25 PM 23.0 °F 17.0 °F 12.2 °F 63% 30.18 in 6.2 mi SSE 4.6 mph - N/A   Clear
9:25 PM 19.4 °F 12.8 °F 12.2 °F 74% 30.18 in 6.2 mi SSE 4.6 mph - N/A   Clear
10:00 PM 19 °F - 12 °F 65% 30.34 in 7 mi SSE 4.5 mph - -  
10:25 PM 17.6 °F 12.3 °F 12.2 °F 79% 30.18 in 6.2 mi Variable 3.5 mph - N/A   Clear